datetime,total release
1993-02-05,0.0
1993-02-06,
1993-02-07,
1993-02-08,0.0
1993-02-09,0.0
1993-02-10,0.0
1993-02-11,0.0
1993-02-12,0.0
1993-02-13,
1993-02-14,
1993-02-15,0.0
1993-02-16,0.0
1993-02-17,0.0
1993-02-18,0.0
1993-02-19,0.0
1993-02-20,0.0
1993-02-21,0.0
1993-02-22,0.0
1993-02-23,0.0
1993-02-24,0.0
1993-02-25,0.0
1993-02-26,0.0
1993-02-27,0.0
1993-02-28,0.0
1993-03-01,0.0
1993-03-02,
1993-03-03,
1993-03-04,
1993-03-05,
1993-03-06,
1993-03-07,
1993-03-08,
1993-03-09,
1993-03-10,
1993-03-11,
1993-03-12,
1993-03-13,
1993-03-14,
1993-03-15,
1993-03-16,
1993-03-17,
1993-03-18,
1993-03-19,
1993-03-20,
1993-03-21,
1993-03-22,
1993-03-23,186.21
1993-03-24,216.65
1993-03-25,260.89
1993-03-26,295.55
1993-03-27,290.64
1993-03-28,314.55
1993-03-29,353.97
1993-03-30,327.51
1993-03-31,274.96
1993-04-01,264.03
1993-04-02,295.23
1993-04-03,278.5
1993-04-04,259.69
1993-04-05,197.79
1993-04-06,159.4
1993-04-07,163.78
1993-04-08,211.09
1993-04-09,240.39
1993-04-10,278.66
1993-04-11,282.11
1993-04-12,184.62
1993-04-13,267.53
1993-04-14,236.58
1993-04-15,265.98
1993-04-16,247.99
1993-04-17,243.99
1993-04-18,247.99
1993-04-19,270.99
1993-04-20,226.99
1993-04-21,231.59
1993-04-22,210.63
1993-04-23,209.63
1993-04-24,274.51
1993-04-25,316.44
1993-04-26,321.43
1993-04-27,322.73
1993-04-28,389.81
1993-04-29,479.45
1993-04-30,469.47
1993-05-01,473.56
1993-05-02,450.1
1993-05-03,450.6
1993-05-04,451.6
1993-05-05,831.73
1993-05-06,590.36
1993-05-07,574.69
1993-05-08,579.97
1993-05-09,451.9
1993-05-10,447.81
1993-05-11,457.99
1993-05-12,715.13
1993-05-13,1108.75
1993-05-14,1734.26
1993-05-15,1227.63
1993-05-16,1661.2
1993-05-17,1930.68
1993-05-18,2054.95
1993-05-19,2080.97
1993-05-20,2114.44
1993-05-21,2138.14
1993-05-22,2143.64
1993-05-23,2170.29
1993-05-24,2191.62
1993-05-25,2059.29
1993-05-26,1709.96
1993-05-27,1767.57
1993-05-28,2178.61
1993-05-29,1507.28
1993-05-30,1660.23
1993-05-31,2008.92
1993-06-01,2021.04
1993-06-02,1800.2
1993-06-03,1691.5
1993-06-04,1403.05
1993-06-05,1299.93
1993-06-06,1307.5
1993-06-07,1307.5
1993-06-08,1307.7
1993-06-09,1308.83
1993-06-10,1310.73
1993-06-11,1315.38
1993-06-12,1320.64
1993-06-13,1325.9
1993-06-14,1334.35
1993-06-15,973.56
1993-06-16,975.26
1993-06-17,1252.45
1993-06-18,1568.07
1993-06-19,1592.5
1993-06-20,1591.13
1993-06-21,1594.73
1993-06-22,1594.66
1993-06-23,1596.67
1993-06-24,1594.15
1993-06-25,1452.99
1993-06-26,1147.47
1993-06-27,1535.67
1993-06-28,1536.17
1993-06-29,1447.44
1993-06-30,1346.11
1993-07-01,1105.36
1993-07-02,1169.58
1993-07-03,1178.21
1993-07-04,981.39
1993-07-05,826.41
1993-07-06,674.46
1993-07-07,672.71
1993-07-08,573.04
1993-07-09,504.52
1993-07-10,462.39
1993-07-11,459.49
1993-07-12,455.07
1993-07-13,441.87
1993-07-14,433.37
1993-07-15,383.99
1993-07-16,335.9
1993-07-17,246.8
1993-07-18,241.32
1993-07-19,235.4
1993-07-20,225.96
1993-07-21,226.87
1993-07-22,226.87
1993-07-23,152.41
1993-07-24,151.68
1993-07-25,249.76
1993-07-26,328.61
1993-07-27,500.68
1993-07-28,425.06
1993-07-29,393.62
1993-07-30,390.77
1993-07-31,303.55
1993-08-01,240.61
1993-08-02,257.47
1993-08-03,235.62
1993-08-04,229.06
1993-08-05,225.77
1993-08-06,224.79
1993-08-07,210.15
1993-08-08,204.62
1993-08-09,205.2
1993-08-10,187.95
1993-08-11,180.52
1993-08-12,129.13
1993-08-13,179.05
1993-08-14,157.02
1993-08-15,148.7
1993-08-16,135.75
1993-08-17,123.6
1993-08-18,115.52
1993-08-19,112.9
1993-08-20,113.2
1993-08-21,127.0
1993-08-22,132.92
1993-08-23,131.96
1993-08-24,142.5
1993-08-25,145.92
1993-08-26,146.37
1993-08-27,146.3
1993-08-28,146.55
1993-08-29,145.9
1993-08-30,146.92
1993-08-31,147.02
1993-09-01,154.35
1993-09-02,156.4
1993-09-03,156.7
1993-09-04,140.8
1993-09-05,132.32
1993-09-06,130.35
1993-09-07,130.67
1993-09-08,130.25
1993-09-09,129.92
1993-09-10,122.7
1993-09-11,120.35
1993-09-12,119.92
1993-09-13,120.9
1993-09-14,120.55
1993-09-15,120.42
1993-09-16,120.22
1993-09-17,120.2
1993-09-18,120.75
1993-09-19,120.95
1993-09-20,120.08
1993-09-21,105.55
1993-09-22,100.27
1993-09-23,100.6
1993-09-24,100.82
1993-09-25,100.77
1993-09-26,100.97
1993-09-27,100.22
1993-09-28,100.87
1993-09-29,90.15
1993-09-30,86.5
1993-10-01,86.45
1993-10-02,85.7
1993-10-03,86.6
1993-10-04,87.02
1993-10-05,86.4
1993-10-06,86.47
1993-10-07,86.4
1993-10-08,85.92
1993-10-09,86.68
1993-10-10,86.75
1993-10-11,87.28
1993-10-12,87.12
1993-10-13,87.1
1993-10-14,87.02
1993-10-15,87.0
1993-10-16,87.85
1993-10-17,87.57
1993-10-18,87.37
1993-10-19,87.15
1993-10-20,98.42
1993-10-21,125.45
1993-10-22,115.45
1993-10-23,89.32
1993-10-24,89.27
1993-10-25,89.1
1993-10-26,89.02
1993-10-27,83.92
1993-10-28,81.67
1993-10-29,82.18
1993-10-30,81.67
1993-10-31,86.72
1993-11-01,81.12
1993-11-02,80.01
1993-11-03,82.3
1993-11-04,82.2
1993-11-05,82.5
1993-11-06,82.0
1993-11-07,81.6
1993-11-08,81.8
1993-11-09,82.3
1993-11-10,71.9
1993-11-11,61.5
1993-11-12,49.5
1993-11-13,48.19
1993-11-14,49.9
1993-11-15,50.2
1993-11-16,49.9
1993-11-17,50.8
1993-11-18,50.8
1993-11-19,50.6
1993-11-20,49.2
1993-11-21,49.7
1993-11-22,48.4
1993-11-23,47.5
1993-11-24,50.3
1993-11-25,50.4
1993-11-26,49.8
1993-11-27,50.1
1993-11-28,50.3
1993-11-29,50.0
1993-11-30,50.0
1993-12-01,50.4
1993-12-02,49.9
1993-12-03,50.0
1993-12-04,50.0
1993-12-05,50.2
1993-12-06,50.1
1993-12-07,50.2
1993-12-08,50.1
1993-12-09,50.05
1993-12-10,50.3
1993-12-11,50.2
1993-12-12,49.9
1993-12-13,50.5
1993-12-14,50.8
1993-12-15,50.5
1993-12-16,50.5
1993-12-17,50.1
1993-12-18,50.6
1993-12-19,50.6
1993-12-20,50.6
1993-12-21,50.7
1993-12-22,50.05
1993-12-23,50.5
1993-12-24,50.9
1993-12-25,50.8
1993-12-26,50.8
1993-12-27,50.8
1993-12-28,50.7
1993-12-29,50.5
1993-12-30,50.6
1993-12-31,51.4
1994-01-01,51.4
1994-01-02,50.8
1994-01-03,50.5
1994-01-04,51.3
1994-01-05,51.2
1994-01-06,51.0
1994-01-07,51.5
1994-01-08,51.4
1994-01-09,50.6
1994-01-10,51.6
1994-01-11,51.3
1994-01-12,51.3
1994-01-13,51.4
1994-01-14,49.3
1994-01-15,49.2
1994-01-16,49.4
1994-01-17,49.8
1994-01-18,49.8
1994-01-19,49.9
1994-01-20,50.0
1994-01-21,50.3
1994-01-22,49.8
1994-01-23,50.1
1994-01-24,50.2
1994-01-25,50.4
1994-01-26,49.6
1994-01-27,50.2
1994-01-28,50.1
1994-01-29,50.2
1994-01-30,49.9
1994-01-31,50.4
1994-02-01,49.9
1994-02-02,50.1
1994-02-03,49.7
1994-02-04,50.6
1994-02-05,49.9
1994-02-06,50.8
1994-02-07,50.6
1994-02-08,50.4
1994-02-09,50.9
1994-02-10,50.6
1994-02-11,49.8
1994-02-12,51.2
1994-02-13,51.1
1994-02-14,50.7
1994-02-15,50.8
1994-02-16,50.8
1994-02-17,50.8
1994-02-18,51.3
1994-02-19,50.8
1994-02-20,51.1
1994-02-21,51.2
1994-02-22,50.5
1994-02-23,50.9
1994-02-24,50.5
1994-02-25,51.0
1994-02-26,51.1
1994-02-27,51.0
1994-02-28,50.7
1994-03-01,51.0
1994-03-02,51.4
1994-03-03,50.7
1994-03-04,51.0
1994-03-05,51.5
1994-03-06,51.5
1994-03-07,51.3
1994-03-08,51.8
1994-03-09,51.5
1994-03-10,51.7
1994-03-11,51.1
1994-03-12,51.3
1994-03-13,51.6
1994-03-14,51.3
1994-03-15,51.6
1994-03-16,51.8
1994-03-17,51.0
1994-03-18,51.5
1994-03-19,52.0
1994-03-20,51.4
1994-03-21,51.8
1994-03-22,52.0
1994-03-23,51.8
1994-03-24,51.8
1994-03-25,51.9
1994-03-26,52.7
1994-03-27,52.0
1994-03-28,52.2
1994-03-29,51.9
1994-03-30,51.6
1994-03-31,50.0
1994-04-01,50.3
1994-04-02,50.1
1994-04-03,50.5
1994-04-04,50.8
1994-04-05,51.4
1994-04-06,50.2
1994-04-07,50.5
1994-04-08,51.5
1994-04-09,50.4
1994-04-10,50.4
1994-04-11,50.8
1994-04-12,50.4
1994-04-13,51.0
1994-04-14,50.4
1994-04-15,50.7
1994-04-16,87.47
1994-04-17,99.55
1994-04-18,158.59
1994-04-19,274.34
1994-04-20,300.07
1994-04-21,442.07
1994-04-22,546.21
1994-04-23,599.64
1994-04-24,625.34
1994-04-25,600.8
1994-04-26,571.64
1994-04-27,524.08
1994-04-28,498.99
1994-04-29,496.06
1994-04-30,496.32
1994-05-01,496.27
1994-05-02,495.69
1994-05-03,496.17
1994-05-04,473.25
1994-05-05,437.39
1994-05-06,478.93
1994-05-07,551.94
1994-05-08,604.54
1994-05-09,605.77
1994-05-10,744.68
1994-05-11,849.01
1994-05-12,993.22
1994-05-13,1134.55
1994-05-14,1271.98
1994-05-15,1362.61
1994-05-16,1343.64
1994-05-17,1321.78
1994-05-18,1195.86
1994-05-19,1029.67
1994-05-20,913.99
1994-05-21,916.81
1994-05-22,910.41
1994-05-23,912.24
1994-05-24,981.39
1994-05-25,1145.62
1994-05-26,1148.24
1994-05-27,995.58
1994-05-28,1021.03
1994-05-29,1018.63
1994-05-30,847.58
1994-05-31,870.04
1994-06-01,718.61
1994-06-02,686.94
1994-06-03,666.46
1994-06-04,664.84
1994-06-05,665.07
1994-06-06,606.56
1994-06-07,555.09
1994-06-08,520.37
1994-06-09,478.99
1994-06-10,420.99
1994-06-11,365.99
1994-06-12,325.99
1994-06-13,286.49
1994-06-14,274.51
1994-06-15,249.56
1994-06-16,232.42
1994-06-17,212.62
1994-06-18,191.66
1994-06-19,179.68
1994-06-20,183.01
1994-06-21,178.47
1994-06-22,179.48
1994-06-23,180.38
1994-06-24,169.6
1994-06-25,161.71
1994-06-26,154.03
1994-06-27,144.74
1994-06-28,134.36
1994-06-29,134.86
1994-06-30,124.08
1994-07-01,65.09
1994-07-02,64.29
1994-07-03,63.99
1994-07-04,65.09
1994-07-05,65.0
1994-07-06,65.0
1994-07-07,65.0
1994-07-08,65.0
1994-07-09,65.0
1994-07-10,65.0
1994-07-11,65.0
1994-07-12,65.0
1994-07-13,65.0
1994-07-14,65.04
1994-07-15,65.04
1994-07-16,66.55
1994-07-17,65.54
1994-07-18,63.02
1994-07-19,77.14
1994-07-20,94.28
1994-07-21,94.78
1994-07-22,93.77
1994-07-23,94.28
1994-07-24,94.28
1994-07-25,94.28
1994-07-26,81.17
1994-07-27,106.88
1994-07-28,94.78
1994-07-29,93.27
1994-07-30,94.78
1994-07-31,94.28
1994-08-01,93.77
1994-08-02,94.78
1994-08-03,93.77
1994-08-04,94.28
1994-08-05,93.77
1994-08-06,94.28
1994-08-07,93.77
1994-08-08,93.77
1994-08-09,93.77
1994-08-10,93.27
1994-08-11,94.28
1994-08-12,94.28
1994-08-13,94.78
1994-08-14,92.26
1994-08-15,94.78
1994-08-16,91.76
1994-08-17,95.29
1994-08-18,95.29
1994-08-19,92.77
1994-08-20,93.77
1994-08-21,93.27
1994-08-22,93.27
1994-08-23,94.28
1994-08-24,93.77
1994-08-25,93.77
1994-08-26,138.14
1994-08-27,48.9
1994-08-28,93.27
1994-08-29,93.27
1994-08-30,95.29
1994-08-31,93.27
1994-09-01,93.27
1994-09-02,93.77
1994-09-03,93.27
1994-09-04,93.77
1994-09-05,93.27
1994-09-06,93.27
1994-09-07,82.18
1994-09-08,65.04
1994-09-09,66.04
1994-09-10,64.53
1994-09-11,64.03
1994-09-12,67.05
1994-09-13,65.04
1994-09-14,66.55
1994-09-15,58.48
1994-09-16,42.85
1994-09-17,42.35
1994-09-18,42.35
1994-09-19,43.36
1994-09-20,17.14
1994-09-21,42.35
1994-09-22,46.38
1994-09-23,53.95
1994-09-24,53.95
1994-09-25,53.95
1994-09-26,52.43
1994-09-27,53.44
1994-09-28,53.44
1994-09-29,53.95
1994-09-30,53.44
1994-10-01,53.95
1994-10-02,53.44
1994-10-03,53.44
1994-10-04,53.44
1994-10-05,53.44
1994-10-06,65.54
1994-10-07,73.61
1994-10-08,73.1
1994-10-09,74.11
1994-10-10,74.11
1994-10-11,73.61
1994-10-12,79.66
1994-10-13,74.11
1994-10-14,74.11
1994-10-15,74.62
1994-10-16,75.12
1994-10-17,74.62
1994-10-18,75.12
1994-10-19,75.12
1994-10-20,75.12
1994-10-21,75.12
1994-10-22,75.12
1994-10-23,77.64
1994-10-24,72.6
1994-10-25,68.57
1994-10-26,61.0
1994-10-27,61.51
1994-10-28,61.51
1994-10-29,61.51
1994-10-30,64.53
1994-10-31,61.51
1994-11-01,63.02
1994-11-02,55.96
1994-11-03,49.91
1994-11-04,53.44
1994-11-05,48.4
1994-11-06,51.93
1994-11-07,51.42
1994-11-08,46.89
1994-11-09,50.92
1994-11-10,50.42
1994-11-11,49.91
1994-11-12,50.42
1994-11-13,50.92
1994-11-14,50.42
1994-11-15,50.42
1994-11-16,50.42
1994-11-17,50.42
1994-11-18,50.92
1994-11-19,50.42
1994-11-20,50.92
1994-11-21,50.42
1994-11-22,50.92
1994-11-23,50.42
1994-11-24,50.92
1994-11-25,50.92
1994-11-26,50.42
1994-11-27,50.92
1994-11-28,50.92
1994-11-29,50.92
1994-11-30,50.92
1994-12-01,50.92
1994-12-02,58.99
1994-12-03,50.92
1994-12-04,50.42
1994-12-05,50.92
1994-12-06,50.92
1994-12-07,50.92
1994-12-08,50.42
1994-12-09,51.42
1994-12-10,50.42
1994-12-11,50.92
1994-12-12,51.42
1994-12-13,47.9
1994-12-14,53.95
1994-12-15,50.92
1994-12-16,50.42
1994-12-17,51.42
1994-12-18,49.91
1994-12-19,51.93
1994-12-20,50.92
1994-12-21,50.92
1994-12-22,51.42
1994-12-23,50.92
1994-12-24,50.92
1994-12-25,50.92
1994-12-26,50.42
1994-12-27,50.92
1994-12-28,50.92
1994-12-29,50.92
1994-12-30,50.42
1994-12-31,51.93
1995-01-01,51.93
1995-01-02,50.92
1995-01-03,50.92
1995-01-04,50.92
1995-01-05,50.92
1995-01-06,51.42
1995-01-07,50.92
1995-01-08,50.42
1995-01-09,51.93
1995-01-10,50.92
1995-01-11,50.92
1995-01-12,51.42
1995-01-13,50.92
1995-01-14,50.42
1995-01-15,51.42
1995-01-16,51.42
1995-01-17,50.92
1995-01-18,50.92
1995-01-19,51.42
1995-01-20,50.92
1995-01-21,51.42
1995-01-22,50.42
1995-01-23,50.92
1995-01-24,51.42
1995-01-25,51.42
1995-01-26,41.85
1995-01-27,50.92
1995-01-28,50.92
1995-01-29,51.93
1995-01-30,50.92
1995-01-31,51.42
1995-02-01,51.42
1995-02-02,53.44
1995-02-03,50.92
1995-02-04,51.42
1995-02-05,51.42
1995-02-06,51.42
1995-02-07,51.93
1995-02-08,53.44
1995-02-09,50.92
1995-02-10,51.42
1995-02-11,51.42
1995-02-12,51.42
1995-02-13,51.42
1995-02-14,51.93
1995-02-15,50.92
1995-02-16,52.43
1995-02-17,50.42
1995-02-18,51.42
1995-02-19,51.42
1995-02-20,51.42
1995-02-21,51.42
1995-02-22,51.42
1995-02-23,51.42
1995-02-24,51.42
1995-02-25,51.42
1995-02-26,50.92
1995-02-27,51.42
1995-02-28,51.42
1995-03-01,51.42
1995-03-02,51.42
1995-03-03,51.42
1995-03-04,51.93
1995-03-05,51.93
1995-03-06,51.42
1995-03-07,50.92
1995-03-08,51.93
1995-03-09,56.47
1995-03-10,51.42
1995-03-11,51.93
1995-03-12,51.93
1995-03-13,51.42
1995-03-14,51.93
1995-03-15,51.42
1995-03-16,51.93
1995-03-17,51.93
1995-03-18,51.93
1995-03-19,51.42
1995-03-20,52.43
1995-03-21,52.43
1995-03-22,51.93
1995-03-23,51.93
1995-03-24,52.43
1995-03-25,87.72
1995-03-26,125.03
1995-03-27,162.34
1995-03-28,205.19
1995-03-29,296.95
1995-03-30,297.96
1995-03-31,185.03
1995-04-01,70.08
1995-04-02,56.97
1995-04-03,50.42
1995-04-04,50.42
1995-04-05,49.91
1995-04-06,50.42
1995-04-07,77.14
1995-04-08,94.78
1995-04-09,95.29
1995-04-10,95.79
1995-04-11,94.28
1995-04-12,131.59
1995-04-13,145.2
1995-04-14,145.2
1995-04-15,145.7
1995-04-16,144.69
1995-04-17,195.61
1995-04-18,223.34
1995-04-19,221.83
1995-04-20,251.58
1995-04-21,262.67
1995-04-22,259.64
1995-04-23,262.16
1995-04-24,262.67
1995-04-25,259.64
1995-04-26,260.65
1995-04-27,224.35
1995-04-28,215.78
1995-04-29,215.78
1995-04-30,214.77
1995-05-01,216.28
1995-05-02,216.79
1995-05-03,217.29
1995-05-04,220.82
1995-05-05,214.77
1995-05-06,217.8
1995-05-07,218.3
1995-05-08,219.31
1995-05-09,219.31
1995-05-10,225.86
1995-05-11,238.97
1995-05-12,243.0
1995-05-13,255.1
1995-05-14,253.59
1995-05-15,263.68
1995-05-16,320.14
1995-05-17,430.55
1995-05-18,483.49
1995-05-19,592.39
1995-05-20,678.09
1995-05-21,1086.46
1995-05-22,1111.67
1995-05-23,1291.66
1995-05-24,1517.52
1995-05-25,1071.84
1995-05-26,780.44
1995-05-27,614.57
1995-05-28,536.43
1995-05-29,524.83
1995-05-30,531.89
1995-05-31,530.88
1995-06-01,535.92
1995-06-02,528.86
1995-06-03,778.42
1995-06-04,765.82
1995-06-05,630.7
1995-06-06,721.45
1995-06-07,926.14
1995-06-08,748.17
1995-06-09,629.7
1995-06-10,462.82
1995-06-11,391.23
1995-06-12,855.05
1995-06-13,1294.68
1995-06-14,1537.69
1995-06-15,1702.55
1995-06-16,1503.91
1995-06-17,1261.41
1995-06-18,1133.35
1995-06-19,1105.12
1995-06-20,1109.15
1995-06-21,1030.5
1995-06-22,999.24
1995-06-23,999.24
1995-06-24,897.4
1995-06-25,850.52
1995-06-26,906.98
1995-06-27,922.11
1995-06-28,979.58
1995-06-29,1005.8
1995-06-30,981.09
1995-07-01,899.42
1995-07-02,789.01
1995-07-03,748.17
1995-07-04,737.59
1995-07-05,649.36
1995-07-06,537.94
1995-07-07,580.29
1995-07-08,636.75
1995-07-09,637.76
1995-07-10,634.74
1995-07-11,631.71
1995-07-12,922.11
1995-07-13,1098.06
1995-07-14,998.74
1995-07-15,889.84
1995-07-16,832.37
1995-07-17,790.02
1995-07-18,729.52
1995-07-19,728.51
1995-07-20,779.43
1995-07-21,763.8
1995-07-22,641.79
1995-07-23,550.04
1995-07-24,494.58
1995-07-25,480.46
1995-07-26,478.95
1995-07-27,477.94
1995-07-28,444.16
1995-07-29,411.39
1995-07-30,378.62
1995-07-31,353.42
1995-08-01,340.81
1995-08-02,300.48
1995-08-03,274.26
1995-08-04,263.68
1995-08-05,259.64
1995-08-06,241.49
1995-08-07,190.07
1995-08-08,189.56
1995-08-09,180.49
1995-08-10,163.85
1995-08-11,145.7
1995-08-12,158.31
1995-08-13,161.33
1995-08-14,160.32
1995-08-15,174.44
1995-08-16,202.17
1995-08-17,199.14
1995-08-18,194.1
1995-08-19,200.15
1995-08-20,198.13
1995-08-21,198.64
1995-08-22,206.2
1995-08-23,204.18
1995-08-24,204.18
1995-08-25,201.66
1995-08-26,205.7
1995-08-27,204.69
1995-08-28,213.76
1995-08-29,224.86
1995-08-30,225.36
1995-08-31,226.87
1995-09-01,224.86
1995-09-02,224.35
1995-09-03,226.37
1995-09-04,223.34
1995-09-05,229.39
1995-09-06,193.6
1995-09-07,162.84
1995-09-08,154.27
1995-09-09,158.31
1995-09-10,154.27
1995-09-11,152.26
1995-09-12,140.16
1995-09-13,159.82
1995-09-14,191.08
1995-09-15,222.33
1995-09-16,240.99
1995-09-17,241.49
1995-09-18,204.69
1995-09-19,142.68
1995-09-20,143.18
1995-09-21,138.64
1995-09-22,143.18
1995-09-23,142.68
1995-09-24,143.69
1995-09-25,141.67
1995-09-26,132.59
1995-09-27,124.53
1995-09-28,129.06
1995-09-29,123.52
1995-09-30,124.53
1995-10-01,125.03
1995-10-02,116.46
1995-10-03,101.34
1995-10-04,99.32
1995-10-05,99.82
1995-10-06,98.82
1995-10-07,99.82
1995-10-08,101.34
1995-10-09,98.82
1995-10-10,100.83
1995-10-11,94.28
1995-10-12,90.75
1995-10-13,90.75
1995-10-14,90.24
1995-10-15,90.75
1995-10-16,90.24
1995-10-17,91.25
1995-10-18,91.25
1995-10-19,90.24
1995-10-20,89.74
1995-10-21,90.75
1995-10-22,90.75
1995-10-23,87.72
1995-10-24,84.19
1995-10-25,86.72
1995-10-26,86.21
1995-10-27,82.18
1995-10-28,80.16
1995-10-29,83.19
1995-10-30,55.46
1995-10-31,105.87
1995-11-01,80.16
1995-11-02,80.16
1995-11-03,79.66
1995-11-04,80.67
1995-11-05,79.66
1995-11-06,81.67
1995-11-07,80.16
1995-11-08,80.16
1995-11-09,80.16
1995-11-10,80.16
1995-11-11,80.16
1995-11-12,80.67
1995-11-13,80.16
1995-11-14,80.67
1995-11-15,80.16
1995-11-16,71.59
1995-11-17,56.97
1995-11-18,55.46
1995-11-19,53.95
1995-11-20,53.95
1995-11-21,51.93
1995-11-22,50.92
1995-11-23,48.9
1995-11-24,50.92
1995-11-25,49.91
1995-11-26,51.42
1995-11-27,49.91
1995-11-28,49.41
1995-11-29,50.92
1995-11-30,49.91
1995-12-01,50.42
1995-12-02,50.42
1995-12-03,50.42
1995-12-04,50.42
1995-12-05,49.91
1995-12-06,50.42
1995-12-07,50.42
1995-12-08,49.91
1995-12-09,51.93
1995-12-10,50.42
1995-12-11,50.42
1995-12-12,47.9
1995-12-13,52.94
1995-12-14,51.93
1995-12-15,49.91
1995-12-16,50.42
1995-12-17,49.91
1995-12-18,50.92
1995-12-19,50.92
1995-12-20,50.42
1995-12-21,49.91
1995-12-22,50.42
1995-12-23,50.42
1995-12-24,50.92
1995-12-25,50.92
1995-12-26,49.91
1995-12-27,50.42
1995-12-28,50.92
1995-12-29,50.42
1995-12-30,50.42
1995-12-31,48.4
1996-01-01,52.43
1996-01-02,50.42
1996-01-03,50.92
1996-01-04,50.42
1996-01-05,50.42
1996-01-06,50.42
1996-01-07,50.92
1996-01-08,50.42
1996-01-09,50.92
1996-01-10,50.92
1996-01-11,50.42
1996-01-12,50.92
1996-01-13,50.42
1996-01-14,50.42
1996-01-15,50.42
1996-01-16,51.42
1996-01-17,50.42
1996-01-18,50.92
1996-01-19,50.42
1996-01-20,50.92
1996-01-21,50.42
1996-01-22,50.42
1996-01-23,54.95
1996-01-24,50.42
1996-01-25,53.44
1996-01-26,50.42
1996-01-27,50.42
1996-01-28,50.92
1996-01-29,50.42
1996-01-30,51.42
1996-01-31,50.92
1996-02-01,50.42
1996-02-02,50.92
1996-02-03,50.92
1996-02-04,49.41
1996-02-05,51.93
1996-02-06,50.92
1996-02-07,50.92
1996-02-08,50.42
1996-02-09,50.92
1996-02-10,50.42
1996-02-11,50.92
1996-02-12,51.42
1996-02-13,51.42
1996-02-14,50.92
1996-02-15,49.91
1996-02-16,51.93
1996-02-17,50.92
1996-02-18,50.92
1996-02-19,50.92
1996-02-20,50.92
1996-02-21,51.93
1996-02-22,49.91
1996-02-23,51.42
1996-02-24,50.42
1996-02-25,50.92
1996-02-26,51.42
1996-02-27,49.91
1996-02-28,51.93
1996-02-29,50.92
1996-03-01,50.92
1996-03-02,51.42
1996-03-03,50.42
1996-03-04,51.42
1996-03-05,51.42
1996-03-06,50.92
1996-03-07,50.92
1996-03-08,50.92
1996-03-09,50.92
1996-03-10,51.42
1996-03-11,51.42
1996-03-12,51.42
1996-03-13,51.42
1996-03-14,51.42
1996-03-15,50.92
1996-03-16,51.42
1996-03-17,50.92
1996-03-18,51.93
1996-03-19,50.92
1996-03-20,50.42
1996-03-21,51.42
1996-03-22,51.42
1996-03-23,51.42
1996-03-24,50.92
1996-03-25,51.42
1996-03-26,51.42
1996-03-27,50.92
1996-03-28,51.93
1996-03-29,51.42
1996-03-30,51.42
1996-03-31,50.92
1996-04-01,51.42
1996-04-02,50.92
1996-04-03,51.42
1996-04-04,51.42
1996-04-05,51.42
1996-04-06,51.93
1996-04-07,51.93
1996-04-08,49.41
1996-04-09,50.42
1996-04-10,51.42
1996-04-11,72.09
1996-04-12,105.87
1996-04-13,106.38
1996-04-14,104.87
1996-04-15,107.39
1996-04-16,139.65
1996-04-17,154.27
1996-04-18,199.14
1996-04-19,211.24
1996-04-20,211.75
1996-04-21,209.73
1996-04-22,207.71
1996-04-23,198.13
1996-04-24,199.14
1996-04-25,200.15
1996-04-26,200.15
1996-04-27,198.64
1996-04-28,200.15
1996-04-29,200.15
1996-04-30,213.26
1996-05-01,220.32
1996-05-02,221.33
1996-05-03,234.94
1996-05-04,262.16
1996-05-05,270.73
1996-05-06,336.27
1996-05-07,561.13
1996-05-08,674.06
1996-05-09,617.09
1996-05-10,620.12
1996-05-11,685.15
1996-05-12,807.66
1996-05-13,1192.34
1996-05-14,1366.27
1996-05-15,1364.76
1996-05-16,1452.48
1996-05-17,1822.54
1996-05-18,1851.78
1996-05-19,1478.7
1996-05-20,1597.68
1996-05-21,1443.41
1996-05-22,1142.93
1996-05-23,1145.95
1996-05-24,1148.47
1996-05-25,996.72
1996-05-26,892.87
1996-05-27,888.33
1996-05-28,889.84
1996-05-29,893.37
1996-05-30,790.02
1996-05-31,792.03
1996-06-01,828.84
1996-06-02,886.82
1996-06-03,1274.01
1996-06-04,1728.76
1996-06-05,1072.85
1996-06-06,1095.03
1996-06-07,1096.04
1996-06-08,1096.04
1996-06-09,1133.85
1996-06-10,1264.94
1996-06-11,1470.13
1996-06-12,1244.77
1996-06-13,963.95
1996-06-14,808.17
1996-06-15,1183.77
1996-06-16,1290.14
1996-06-17,1213.01
1996-06-18,955.38
1996-06-19,693.22
1996-06-20,522.81
1996-06-21,577.77
1996-06-22,794.56
1996-06-23,794.05
1996-06-24,694.23
1996-06-25,724.98
1996-06-26,828.84
1996-06-27,1070.83
1996-06-28,801.61
1996-06-29,797.58
1996-06-30,695.74
1996-07-01,625.16
1996-07-02,625.16
1996-07-03,498.61
1996-07-04,501.13
1996-07-05,546.0
1996-07-06,547.01
1996-07-07,549.03
1996-07-08,548.02
1996-07-09,546.0
1996-07-10,547.52
1996-07-11,547.52
1996-07-12,548.02
1996-07-13,546.0
1996-07-14,549.03
1996-07-15,550.04
1996-07-16,545.0
1996-07-17,542.48
1996-07-18,546.0
1996-07-19,542.98
1996-07-20,542.98
1996-07-21,543.99
1996-07-22,545.0
1996-07-23,444.67
1996-07-24,446.18
1996-07-25,397.78
1996-07-26,396.27
1996-07-27,397.28
1996-07-28,392.24
1996-07-29,394.76
1996-07-30,393.75
1996-07-31,391.23
1996-08-01,393.75
1996-08-02,391.73
1996-08-03,380.14
1996-08-04,379.63
1996-08-05,377.11
1996-08-06,378.12
1996-08-07,290.4
1996-08-08,289.89
1996-08-09,263.68
1996-08-10,265.19
1996-08-11,253.09
1996-08-12,244.01
1996-08-13,242.0
1996-08-14,242.5
1996-08-15,242.5
1996-08-16,236.45
1996-08-17,236.95
1996-08-18,235.44
1996-08-19,234.94
1996-08-20,235.44
1996-08-21,235.95
1996-08-22,236.95
1996-08-23,236.45
1996-08-24,236.45
1996-08-25,238.47
1996-08-26,227.88
1996-08-27,219.81
1996-08-28,219.81
1996-08-29,220.32
1996-08-30,220.82
1996-08-31,218.81
1996-09-01,219.81
1996-09-02,220.32
1996-09-03,220.32
1996-09-04,220.82
1996-09-05,218.81
1996-09-06,220.32
1996-09-07,219.81
1996-09-08,219.31
1996-09-09,218.81
1996-09-10,220.82
1996-09-11,219.31
1996-09-12,228.89
1996-09-13,230.4
1996-09-14,231.41
1996-09-15,230.9
1996-09-16,230.9
1996-09-17,229.39
1996-09-18,230.9
1996-09-19,216.79
1996-09-20,212.76
1996-09-21,214.77
1996-09-22,213.76
1996-09-23,213.26
1996-09-24,215.28
1996-09-25,214.27
1996-09-26,214.77
1996-09-27,213.26
1996-09-28,213.76
1996-09-29,214.27
1996-09-30,216.28
1996-10-01,214.44
1996-10-02,214.65
1996-10-03,215.14
1996-10-04,215.45
1996-10-05,215.25
1996-10-06,214.15
1996-10-07,214.75
1996-10-08,215.25
1996-10-09,215.45
1996-10-10,216.05
1996-10-11,214.65
1996-10-12,214.75
1996-10-13,215.54
1996-10-14,215.85
1996-10-15,212.55
1996-10-16,213.95
1996-10-17,214.95
1996-10-18,213.84
1996-10-19,212.85
1996-10-20,211.85
1996-10-21,212.64
1996-10-22,199.35
1996-10-23,199.45
1996-10-24,195.25
1996-10-25,195.45
1996-10-26,195.25
1996-10-27,195.05
1996-10-28,196.15
1996-10-29,194.25
1996-10-30,193.75
1996-10-31,194.68
1996-11-01,195.36
1996-11-02,194.86
1996-11-03,193.85
1996-11-04,196.07
1996-11-05,187.35
1996-11-06,188.56
1996-11-07,184.17
1996-11-08,184.17
1996-11-09,183.97
1996-11-10,183.36
1996-11-11,184.98
1996-11-12,183.36
1996-11-13,184.37
1996-11-14,182.66
1996-11-15,181.65
1996-11-16,184.47
1996-11-17,174.74
1996-11-18,161.18
1996-11-19,155.4
1996-11-20,153.2
1996-11-21,155.0
1996-11-22,154.2
1996-11-23,154.8
1996-11-24,155.2